Fort Dix, NJ

6:24 AM EDT on August 28, 2016 (GMT -0400)
McGuire Air Force Base

Weather History for KWRI - January, 2014

Change the Weather History Date:

Thursday, January 23, 2014

  Actual Average Record
Temperature  
Mean Temperature 12 °F -  
Max Temperature 20 °F 36 °F 69 °F (1999)
Min Temperature 5 °F 20 °F 5 °F (2014)
Degree Days  
Heating Degree Days 52    
Moisture  
Dew Point -2 °F    
Average Humidity 54    
Maximum Humidity 63    
Minimum Humidity 45    
Precipitation  
Precipitation 0.00 in - - ()
Sea Level Pressure  
Sea Level Pressure 30.15 in    
Wind  
Wind Speed 7 mph (West)    
Max Wind Speed 15 mph    
Max Gust Speed 20 mph    
Visibility 10 miles    
Events Snow    
Averages and records for this station are not official NWS values.
T = Trace of Precipitation, MM = Missing Value Source: NWS Daily Summary

Daily Weather History Graph

Daily Weather History Graph

Search for Another Location

Airport or City:

Trip Planner

Search our weather history database for the weather conditions in past years. The results will help you decide how hot, cold, wet, or windy it might be!

Date:

Astronomy

Jan. 23, 2014 Rise Set
Actual Time 7:14 AM EST 5:06 PM EST
Civil Twilight 6:44 AM EST 5:35 PM EST
Nautical Twilight 6:11 AM EST 6:08 PM EST
Astronomical Twilight 5:39 AM EST 6:41 PM EST
Moon No Moon Rise 10:47 AM EST (1/23)
Length of Visible Light 10h 51m
Length of Day
9h 52m
Waning Gibbous, 55% of the Moon is Illuminated
Jan 23
Waning Gibbous
Jan 24
Last Quarter
Jan 30
New
Feb 6
First Quarter
Feb 14
Full

Hourly Weather History & Observations

Time (EST) Temp. Windchill Dew Point Humidity Pressure Visibility Wind Dir Wind Speed Gust Speed Precip Events Conditions
12:22 AM 6.8 °F -4.8 °F -5.8 °F 56% 30.01 in 10.0 mi WNW 6.9 mph - N/A   Mostly Cloudy
12:39 AM 8.6 °F -1.3 °F -5.8 °F 52% 30.02 in 10.0 mi West 5.8 mph - N/A Snow Light Snow
12:51 AM 8.6 °F -1.3 °F -5.8 °F 52% 30.02 in 10.0 mi WNW 5.8 mph - N/A   Overcast
12:58 AM 7.9 °F -2.2 °F -5.8 °F 54% 30.04 in 10.0 mi WNW 5.8 mph - 0.00 in   Overcast
1:00 AM 8.6 °F -1.3 °F -5.8 °F 52% 30.02 in 10.0 mi WNW 5.8 mph - N/A Snow Light Snow
1:58 AM 8.4 °F -2.8 °F -5.6 °F 53% 30.06 in 10.0 mi West 6.9 mph - 0.00 in Snow Light Snow
2:58 AM 8.1 °F -4.3 °F -5.1 °F 55% 30.07 in 10.0 mi West 8.1 mph - 0.00 in Snow Light Snow
3:31 AM 8.6 °F -3.7 °F -5.8 °F 52% 30.06 in 10.0 mi West 8.1 mph - N/A   Overcast
3:36 AM 8.6 °F -3.7 °F -5.8 °F 52% 30.06 in 10.0 mi West 8.1 mph - N/A Snow Light Snow
3:58 AM 8.2 °F -5.1 °F -5.3 °F 54% 30.09 in 10.0 mi West 9.2 mph - 0.00 in Snow Light Snow
4:06 AM 8.6 °F -3.7 °F -4.0 °F 57% 30.08 in 10.0 mi WNW 8.1 mph - N/A   Overcast
4:29 AM 8.6 °F -2.6 °F -5.8 °F 52% 30.08 in 10.0 mi West 6.9 mph - N/A Snow Light Snow
4:43 AM 8.6 °F -1.3 °F -5.8 °F 52% 30.08 in 10.0 mi WNW 5.8 mph - N/A   Overcast
4:48 AM 8.6 °F -1.3 °F -5.8 °F 52% 30.08 in 10.0 mi West 5.8 mph - N/A Snow Light Snow
4:58 AM 8.1 °F -2.0 °F -5.1 °F 55% 30.10 in 10.0 mi West 5.8 mph - 0.00 in Snow Light Snow
5:10 AM 6.8 °F -3.5 °F -5.8 °F 56% 30.08 in 10.0 mi WNW 5.8 mph - N/A   Overcast
5:19 AM 6.8 °F -0.1 °F -5.8 °F 56% 30.09 in 10.0 mi West 3.5 mph - N/A Snow Light Snow
5:58 AM 6.3 °F -4.1 °F -5.8 °F 58% 30.13 in 10.0 mi West 5.8 mph - 0.00 in Snow Light Snow
6:17 AM 5.0 °F -6.9 °F -5.8 °F 61% 30.11 in 10.0 mi West 6.9 mph - N/A   Partly Cloudy
6:30 AM 6.8 °F -3.5 °F -5.8 °F 56% 30.12 in 10.0 mi West 5.8 mph - N/A Snow Light Snow
6:58 AM 5.7 °F -4.8 °F -6.2 °F 58% 30.14 in 10.0 mi West 5.8 mph - 0.00 in Snow Light Snow
7:09 AM 5.0 °F -4.1 °F -5.8 °F 61% 30.13 in 10.0 mi WSW 4.6 mph - N/A   Partly Cloudy
7:58 AM 5.0 °F -4.1 °F -5.3 °F 63% 30.16 in 10.0 mi WSW 4.6 mph - 0.00 in Snow Light Snow
8:22 AM 6.8 °F -3.5 °F -4.0 °F 61% 30.15 in 10.0 mi SW 5.8 mph - N/A   Clear
8:58 AM 9.9 °F 0.2 °F -3.5 °F 55% 30.17 in 10.0 mi West 5.8 mph - 0.00 in Snow Light Snow
9:58 AM 13.5 °F 2.2 °F -2.4 °F 49% 30.19 in 10.0 mi West 8.1 mph - 0.00 in Snow Light Snow
10:58 AM 15.8 °F 2.1 °F 0.3 °F 51% 30.18 in 10.0 mi WNW 12.7 mph - 0.00 in Snow Light Snow
11:12 AM 17.6 °F 5.7 °F 1.4 °F 49% 30.16 in 10.0 mi WNW 10.4 mph - N/A   Clear
11:58 AM 17.8 °F 5.2 °F 1.4 °F 49% 30.17 in 10.0 mi WNW 11.5 mph - 0.00 in   Clear
12:32 PM 19.4 °F 5.5 °F 1.4 °F 46% 30.14 in 10.0 mi WSW 15.0 mph - N/A   Clear
12:58 PM 19.4 °F 8.6 °F 1.2 °F 45% 30.16 in 10.0 mi West 9.2 mph - N/A   Clear
1:58 PM 20.3 °F 9.0 °F 1.9 °F 45% 30.16 in 10.0 mi West 10.4 mph 19.6 mph N/A   Clear
2:58 PM 20.3 °F 6.6 °F 1.9 °F 45% 30.16 in 10.0 mi WNW 15.0 mph - N/A   Clear
3:58 PM 20.3 °F 7.7 °F 2.3 °F 46% 30.18 in 10.0 mi West 12.7 mph - N/A   Clear
4:58 PM 18.9 °F 7.2 °F 1.0 °F 46% 30.21 in 10.0 mi West 10.4 mph - N/A   Clear
5:58 PM 17.1 °F 6.6 °F 3.6 °F 56% 30.24 in 10.0 mi West 8.1 mph - N/A   Clear
6:58 PM 15.8 °F 7.2 °F 2.7 °F 56% 30.26 in 10.0 mi West 5.8 mph - N/A   Clear
7:58 PM 15.3 °F 9.6 °F 1.4 °F 54% 30.28 in 10.0 mi West 3.5 mph - N/A   Clear
8:58 PM 14.5 °F 5.7 °F 2.5 °F 59% 30.30 in 10.0 mi West 5.8 mph - N/A   Clear
9:58 PM 14.7 °F 2.9 °F 3.2 °F 60% 30.31 in 10.0 mi West 9.2 mph - N/A   Clear
10:40 PM 14.0 °F 2.0 °F 3.2 °F 62% 30.30 in 10.0 mi West 9.2 mph - N/A   Mostly Cloudy
10:58 PM 14.0 °F 2.9 °F 3.4 °F 63% 30.32 in 10.0 mi West 8.1 mph - N/A   Overcast
11:31 PM 14.0 °F 0.5 °F 3.2 °F 62% 30.30 in 10.0 mi West 11.5 mph - N/A   Scattered Clouds
11:58 PM 13.3 °F 3.0 °F 1.8 °F 60% 30.33 in 10.0 mi West 6.9 mph - N/A   Clear